Regional Weather Roundup
Issued by NWS Goodland, KS

Home | Current Version | Previous Version | Graphics & Text | Print | Product List | Glossary On
Versions: 1 2 3 4 5 6 7 8 9 10 11 12 13 14 15 16 17 18 19 20 21 22 23 24 25 26 27 28 29 30 31 32 33 34 35 36 37 38 39 40 41 42 43 44 45 46 47 48 49 50
000
ASUS43 KGLD 241859
RWRGLD

GOODLAND FORECAST AREA HOURLY WEATHER ROUNDUP
NATIONAL WEATHER SERVICE GOODLAND KS
100 PM MDT WED AUG 24 2016

...OFFICIAL OBSERVATIONS...

CITY           SKY/WX    TMP DP  RH WIND       PRES   REMARKS
GOODLAND KS    CLOUDY    69  42  37 NE13      30.15F
HILL CITY KS   CLOUDY    69  57  65 NE8       30.07S
IMPERIAL NEB   PTSUNNY   76  38  25 NE8       30.17F
MCCOOK NEB     PTSUNNY   76  45  33 NE14      30.12S
AKRON CO       MOSUNNY   71  33  24 E10       30.23F
BURLINGTON CO  CLOUDY    62  48  60 N13       30.19F
LIMON CO       PTSUNNY   73  33  23 E15       30.23F
$$

...UNOFFICIAL OBSERVATIONS...

CITY           SKY/WX    TMP DP  RH WIND       PRES   REMARKS
COLBY KS       CLOUDY    72  46  40 NE18      30.14R
NORTON KS      MOSUNNY   73  43  33 N13       30.09S
SHARON SPRINGS   N/A     73  48  41 NE12G20     N/A
KIT CARSON CO    N/A     70  42  35 MISG        N/A
YUMA CO          N/A     72  41  32 E10         N/A
$$



USA.gov is the U.S. government's official web portal to all federal, state and local government web resources and services.